Погода в Берегомете

Украина / Черновицкая область     48°21′51″N   25°41′44″E
темп.,
°C
ветер,
м/с
пор.,
м/с
влажн.,
%
обл.,
%
осадки,
мм/ч
давл.,
гПа
погр.,
м
7 мая, пт
пт700:00+6юз11665 0.0 101411
03:00+5ююв32785 0.0 101425
06:00+7ююв3775100 0.0 1012156
09:00+11ююв4671100 0.0 1010285
12:00+16ююз2453100 0.0 10081097
15:00+14сз3675100 0.3 1008307
18:00+14зюз1276100 0.1 100684
21:00+10зюз2486100 0.4 1007106
8 мая, сб
сб800:00+10з4789100 0.7 1009186
03:00+7сз81293100 1.3 10121098
06:00+4зсз81485100 0.4 1016742
09:00+7сз913683 0.4 10171289
12:00+11сз9124712 0.0 10182095
15:00+11ссз9105043 0.0 10191710
18:00+10сз7105515 0.0 10201531
21:00+5зсз33735 0.0 102235
9 мая, вс
вс900:00+3зюз22843 0.0 102410
03:00+3юз11851 0.0 102510
06:00+2ююз11854 0.0 102610
09:00+9ююв22625 0.0 1027377
12:00+13юв32469 0.0 10261692
15:00+15вюв33415 0.0 10251645
18:00+15вюв455275 0.0 10241213
21:00+9юв412695 0.0 1025231
10 мая, пн
пн1000:00+6юв36788 0.0 102695
03:00+5юв357818 0.0 102683
06:00+4юв35855 0.0 102575
09:00+11юв58675 0.0 1025414
12:00+17юв810545 0.0 10241026
15:00+18юв810485 0.0 10231217
18:00+17юв810565 0.0 1022913
21:00+12юв514640 0.0 1023423
11 мая, вт
вт1100:00+8юв410780 0.0 1024199
03:00+6юв47840 0.0 1024124
06:00+5юв47860 0.0 1024117
09:00+12юв713630 0.0 1023587
12:00+17юв811510 0.0 10221028
15:00+19юв89470 0.0 10201219
18:00+18вюв79560 0.0 10191140
21:00+12вюв412700 0.0 1019246